[[{"header":{"parameterUnit":"m.s-1","parameterCategory":1,"la1":30.2991,"la2":30.254,"lo1":-89.0895,"lo2":-89.0444,"dy":0.0017,"dx":0.0017,"nx":28,"ny":28,"refTime":"2023-08-05T09:00:00:Z","depth":0,"parameterNumber":2,"parameterNumberName":"U-component_of_WINDS"},"data":[0,0,0,0,0,0,0,0,0,0,0,0,0,0,0,0,0,0,0,0,0,0,0,0,0,0,0,0,0,0,0,0,0,0,0,0,0,0,0,0,0,0,0,0,0,0,0,0,0,0,0,0,0,0,0,0,0,0,4.6877,4.6878,0,4.7005,4.7006,4.7008,4.6961,4.6958,4.6955,4.6952,4.7084,4.709,4.7096,0,0,0,0,0,0,0,0,0,0,0,0,0,4.6591,4.6597,4.6877,4.6878,4.688,4.7005,4.7006,4.7008,4.6961,4.6958,4.6954,4.6951,4.7082,4.7089,4.7097,0,0,0,0,0,0,0,0,0,0,0,0,0,4.6717,4.6599,4.6876,4.6871,4.6872,4.7004,4.7007,4.7009,4.6962,4.6958,4.6953,4.6949,4.708,4.7089,4.7098,4.7243,0,0,4.7127,4.7131,0,0,0,0,0,0,0,0,4.671,4.6728,4.687,4.6872,4.6873,4.6962,4.6954,4.7087,4.6963,4.6928,4.6952,4.6947,4.7047,4.7059,4.7093,4.7249,4.7255,4.7127,4.7133,4.7137,4.714,0,0,0,0,0,0,0,4.6701,4.6722,4.6927,4.6873,4.6874,4.6863,4.6876,4.6979,4.701,4.6931,4.6927,4.6943,4.7047,4.7084,4.7095,4.7257,4.7127,4.7135,4.7141,4.7145,4.7539,4.7544,0,0,0,0,0,0,4.6692,4.6715,4.6923,4.6931,4.6779,4.6872,4.6886,4.6938,4.7009,4.7016,4.6947,4.6941,4.707,4.7084,4.71,4.7274,4.7137,4.7146,4.7151,4.7534,4.754,4.7545,0,0,0,0,0,0,4.6686,4.6711,4.6918,4.6822,4.6848,4.6881,4.694,4.6943,4.6979,4.7021,4.7027,4.6979,4.7067,4.7087,4.7208,4.7278,4.715,4.7158,4.7528,4.7536,4.7543,4.7624,0,0,0,0,0,0,4.6678,4.6709,4.6764,4.6824,4.6853,4.7024,4.6944,4.6949,4.6996,4.6989,4.7053,4.7059,4.7065,4.7194,4.7217,4.7289,4.7166,4.7522,4.7532,4.754,4.7615,4.7633,4.7649,0,0,0,0,0,4.6668,4.6782,4.6767,4.6793,4.6923,4.7028,4.7045,4.7049,4.7001,4.7057,4.7084,4.7057,4.7267,4.7207,4.7232,4.7308,4.7518,4.7529,4.754,4.7608,4.763,4.7649,0,0,0,0,0,0,4.673,4.679,4.6774,4.6911,4.6965,4.702,4.709,4.7072,4.7141,4.7131,4.7134,4.7149,4.7274,4.7303,4.7235,4.7452,4.7385,4.7402,4.7428,4.745,4.7466,4.7456,4.7173,0,0,0,0,0,4.676,4.684,4.6888,4.7004,4.7032,4.7057,4.7103,4.7102,4.7158,4.718,4.7216,4.7271,4.735,4.7401,4.7476,4.762,4.7633,4.7684,4.7701,4.7714,4.7729,4.7807,4.783,4.7581,4.7581,4.7581,0,0,4.6822,4.6865,4.6915,4.7018,4.7059,4.7143,4.7076,4.7167,4.7229,4.7194,4.731,4.7339,4.7401,4.7534,4.7594,4.7562,4.7801,4.7728,4.7739,4.7746,4.7821,4.7844,4.7865,4.7589,4.7587,4.7586,0,0,4.6978,4.7018,4.7119,4.7162,4.7226,4.7242,4.7266,4.7324,4.7342,4.7459,4.7434,4.7508,4.7643,4.7688,4.7729,4.7903,4.788,4.7927,4.8014,4.8091,4.811,4.8128,4.8189,4.8212,4.7941,4.7941,4.7941,0,4.7047,4.7171,4.7174,4.7267,4.7313,4.7285,4.7388,4.7429,4.7514,4.7547,4.751,4.7679,4.7718,4.7862,4.7904,4.7938,4.7966,4.7919,4.8107,4.8125,4.8141,4.82,4.8223,4.7946,4.7946,4.7945,4.7945,0,4.7253,4.734,4.7414,4.7497,4.7551,4.7649,4.7666,4.7721,4.7715,4.7735,4.7855,4.7902,4.7985,4.8019,4.8015,4.8163,4.8141,4.8105,4.8038,4.817,4.8225,4.8248,4.7954,4.7952,4.795,4.7949,0,0,4.7452,4.7534,4.7562,4.7599,4.7667,4.7734,4.7831,4.7912,4.7959,4.8019,4.81,4.8215,4.8183,4.823,4.823,4.8297,4.8432,4.8254,4.8255,4.8285,4.8597,4.8623,4.8649,4.8417,4.8422,4.8425,4.8592,0,4.7613,4.7781,4.7787,4.7941,4.8021,4.7996,4.808,4.8132,4.8153,4.8224,4.8248,4.8329,4.8281,4.8309,4.8374,4.8401,4.8494,4.8389,4.8493,4.8496,4.8478,4.8678,4.8706,4.8862,4.8614,4.8618,4.862,0,4.7823,4.7889,4.8052,4.8109,4.8143,4.8218,4.8293,4.8362,4.842,4.843,4.8482,4.8473,4.8572,4.8502,4.8638,4.8567,4.8609,4.8629,4.8636,4.8645,4.8566,4.8693,4.8911,4.8935,4.8655,4.8652,4.8649,0,4.7951,4.8081,4.8195,4.8228,4.8297,4.8351,4.8382,4.8436,4.8485,4.8551,4.8582,4.8659,4.8701,4.8761,4.8773,4.8721,4.891,4.884,4.8922,4.8921,4.8962,4.8959,4.919,4.899,4.899,4.8989,4.8989,0,4.8131,4.8231,4.8254,4.8324,4.8436,4.8441,4.8552,4.8579,4.8627,4.8702,4.8685,4.8756,4.8768,4.8842,4.8852,4.8963,4.8982,4.8994,4.8995,4.8995,4.8994,4.9023,4.9013,4.8996,4.8994,4.8993,4.8992,0,4.8293,4.8312,4.8435,4.849,4.8507,4.8587,4.8634,4.8702,4.8721,4.8817,4.8839,4.887,4.8956,4.8974,4.9076,4.9083,4.9215,4.9206,4.9196,4.9195,4.9275,4.9267,4.9532,4.9567,4.9345,4.9347,4.9348,0,4.8406,4.8482,4.8546,4.8595,4.8629,4.8709,4.8758,4.8767,4.8819,4.8891,4.895,4.9034,4.9102,4.9241,4.9272,4.935,4.9343,4.943,4.9354,4.9352,4.9344,4.9339,4.9347,4.9445,4.9447,4.9449,4.9451,0,4.8604,4.861,4.8682,4.8758,4.8818,4.8878,4.8935,4.8976,4.8992,4.9052,4.914,4.9193,4.9297,4.9381,4.9459,4.9491,4.9474,4.9474,4.9497,4.9498,4.9489,4.9495,4.9235,4.9468,4.9466,4.9465,4.9464,4.9463,4.8746,4.8812,4.8868,4.8949,4.8993,4.9047,4.9113,4.914,4.9213,4.9299,4.9299,4.9395,4.9451,4.9554,4.9592,4.9667,4.964,4.9673,4.9681,4.9689,4.9697,4.9477,4.9681,4.9681,4.968,4.968,4.968,0,4.8943,4.8978,4.9052,4.9132,4.9196,4.9174,4.9236,4.9291,4.9376,4.9429,4.9496,4.9597,4.9679,4.9717,4.9797,4.985,4.9844,4.9871,4.9867,4.9875,4.9717,4.9689,4.9874,4.9874,4.9874,4.9874,4.9874,4.9874,4.9054,4.9166,4.9178,4.9312,4.9346,4.9439,4.9477,4.9526,4.9569,4.9682,4.975,4.9774,4.9822,4.9905,4.9979,4.9988,5.0019,5.0049,5.0055,4.9906,4.9886,4.9867,4.9841,5.0056,5.0056,5.0207,5.0208,5.0209]},{"header":{"parameterUnit":"m.s-1","parameterCategory":1,"la1":30.2991,"la2":30.254,"lo1":-89.0895,"lo2":-89.0444,"dy":0.0017,"dx":0.0017,"nx":28,"ny":28,"refTime":"2023-08-05T09:00:00:Z","depth":0,"parameterNumber":3,"parameterNumberName":"V-component_of_WINDS"},"data":[0,0,0,0,0,0,0,0,0,0,0,0,0,0,0,0,0,0,0,0,0,0,0,0,0,0,0,0,0,0,0,0,0,0,0,0,0,0,0,0,0,0,0,0,0,0,0,0,0,0,0,0,0,0,0,0,0,0,-1.5372,-1.5372,0,-1.5451,-1.5452,-1.5453,-1.5471,-1.547,-1.5469,-1.5469,-1.5551,-1.5554,-1.5557,0,0,0,0,0,0,0,0,0,0,0,0,0,-1.5235,-1.5237,-1.5371,-1.5372,-1.5373,-1.5451,-1.5452,-1.5454,-1.5471,-1.547,-1.5469,-1.5469,-1.555,-1.5554,-1.5557,0,0,0,0,0,0,0,0,0,0,0,0,0,-1.5302,-1.5238,-1.5371,-1.5391,-1.5394,-1.5451,-1.5452,-1.5454,-1.5471,-1.547,-1.5469,-1.5468,-1.5549,-1.5553,-1.5557,-1.56,0,0,-1.557,-1.5572,0,0,0,0,0,0,0,0,-1.5299,-1.5307,-1.5387,-1.539,-1.5393,-1.545,-1.5435,-1.5503,-1.5471,-1.5442,-1.5469,-1.5468,-1.5518,-1.5525,-1.5542,-1.5604,-1.5608,-1.557,-1.5573,-1.5575,-1.5576,0,0,0,0,0,0,0,-1.5294,-1.5304,-1.5403,-1.5389,-1.5392,-1.5397,-1.5405,-1.5448,-1.5484,-1.5444,-1.5446,-1.5455,-1.552,-1.5538,-1.5544,-1.5609,-1.557,-1.5574,-1.5576,-1.5578,-1.5711,-1.5712,0,0,0,0,0,0,-1.5286,-1.53,-1.5401,-1.5406,-1.5343,-1.54,-1.541,-1.5433,-1.5484,-1.549,-1.5455,-1.5455,-1.5531,-1.5539,-1.5547,-1.5601,-1.5575,-1.5578,-1.5581,-1.571,-1.5712,-1.5713,0,0,0,0,0,0,-1.5283,-1.5294,-1.5397,-1.5353,-1.5367,-1.5403,-1.5429,-1.5435,-1.5453,-1.5492,-1.5499,-1.5467,-1.5531,-1.5541,-1.5587,-1.5604,-1.558,-1.5584,-1.5709,-1.5711,-1.5712,-1.5709,0,0,0,0,0,0,-1.5279,-1.5293,-1.5309,-1.5354,-1.5369,-1.5436,-1.543,-1.5437,-1.546,-1.546,-1.5505,-1.5511,-1.5531,-1.5581,-1.5591,-1.5609,-1.5587,-1.5708,-1.571,-1.5712,-1.5707,-1.571,-1.5712,0,0,0,0,0,-1.5274,-1.5305,-1.531,-1.5322,-1.539,-1.5437,-1.5446,-1.5467,-1.5461,-1.5478,-1.5503,-1.551,-1.5601,-1.5585,-1.5597,-1.5617,-1.5707,-1.5709,-1.5712,-1.5706,-1.5709,-1.5712,0,0,0,0,0,0,-1.5262,-1.5311,-1.5317,-1.5364,-1.5396,-1.5439,-1.5461,-1.547,-1.5504,-1.5503,-1.5529,-1.5539,-1.5583,-1.5605,-1.5587,-1.5661,-1.5653,-1.5658,-1.5645,-1.5649,-1.5651,-1.5645,-1.5591,0,0,0,0,0,-1.5265,-1.5298,-1.534,-1.5377,-1.5393,-1.5424,-1.5445,-1.5459,-1.5494,-1.5507,-1.5536,-1.5569,-1.5605,-1.5628,-1.5664,-1.5711,-1.5721,-1.573,-1.5733,-1.5734,-1.5738,-1.5765,-1.577,-1.5721,-1.5721,-1.5721,0,0,-1.5271,-1.5302,-1.5322,-1.5376,-1.5402,-1.5436,-1.5436,-1.5472,-1.5498,-1.5513,-1.5558,-1.558,-1.5619,-1.5666,-1.5688,-1.5685,-1.5754,-1.5738,-1.5739,-1.5741,-1.5768,-1.5773,-1.5777,-1.5722,-1.5722,-1.5722,0,0,-1.53,-1.5327,-1.5361,-1.5388,-1.5428,-1.5449,-1.5457,-1.55,-1.5515,-1.5561,-1.5573,-1.5605,-1.5666,-1.5693,-1.5715,-1.5756,-1.5763,-1.5767,-1.5779,-1.5805,-1.5809,-1.5812,-1.5827,-1.5832,-1.577,-1.577,-1.577,0,-1.5303,-1.5355,-1.5378,-1.5414,-1.5437,-1.5453,-1.5488,-1.5513,-1.5562,-1.5578,-1.5575,-1.5652,-1.568,-1.5733,-1.5743,-1.5761,-1.5771,-1.5761,-1.5806,-1.581,-1.5814,-1.5828,-1.5833,-1.5771,-1.577,-1.577,-1.577,0,-1.5356,-1.5392,-1.5415,-1.5463,-1.5489,-1.5524,-1.5553,-1.5577,-1.5589,-1.561,-1.5657,-1.5691,-1.5733,-1.5747,-1.5759,-1.5803,-1.58,-1.5801,-1.5793,-1.5818,-1.5832,-1.5837,-1.5771,-1.5771,-1.5771,-1.5771,0,0,-1.5379,-1.544,-1.5448,-1.547,-1.5515,-1.5544,-1.558,-1.5622,-1.5642,-1.5676,-1.5707,-1.576,-1.5761,-1.5786,-1.5802,-1.5825,-1.5855,-1.5823,-1.5824,-1.5827,-1.5905,-1.5904,-1.591,-1.586,-1.5862,-1.5862,-1.5902,0,-1.5414,-1.5478,-1.5501,-1.5555,-1.5588,-1.5604,-1.5636,-1.5668,-1.5689,-1.5722,-1.5746,-1.5782,-1.5781,-1.5796,-1.582,-1.5846,-1.5871,-1.5844,-1.589,-1.5891,-1.5879,-1.5917,-1.5915,-1.5951,-1.5907,-1.5908,-1.5909,0,-1.5462,-1.5497,-1.5554,-1.5596,-1.5611,-1.5639,-1.5679,-1.571,-1.5747,-1.5761,-1.5789,-1.5803,-1.5843,-1.5833,-1.5888,-1.5869,-1.589,-1.5906,-1.5908,-1.5912,-1.5901,-1.5922,-1.5963,-1.5968,-1.5918,-1.5917,-1.5916,0,-1.5473,-1.5534,-1.5576,-1.5594,-1.5645,-1.5664,-1.5686,-1.5722,-1.5746,-1.5782,-1.5797,-1.5837,-1.5859,-1.5889,-1.5914,-1.5905,-1.5967,-1.596,-1.598,-1.5979,-1.5992,-1.599,-1.6035,-1.6006,-1.6006,-1.6005,-1.6005,0,-1.5508,-1.5542,-1.5581,-1.5607,-1.5647,-1.5672,-1.5711,-1.5734,-1.5766,-1.5797,-1.5814,-1.5843,-1.5874,-1.5907,-1.5927,-1.597,-1.5979,-1.5992,-1.5997,-1.599,-1.5989,-1.6004,-1.6002,-1.6007,-1.6007,-1.6006,-1.6006,0,-1.5526,-1.5554,-1.5601,-1.5645,-1.5657,-1.5684,-1.5722,-1.5748,-1.5771,-1.581,-1.5821,-1.5856,-1.5896,-1.5924,-1.5976,-1.5989,-1.6035,-1.604,-1.6022,-1.6025,-1.6043,-1.6041,-1.6099,-1.6108,-1.6072,-1.6073,-1.6073,0,-1.5547,-1.5574,-1.5621,-1.5643,-1.5665,-1.57,-1.5724,-1.5751,-1.5776,-1.5821,-1.5841,-1.5883,-1.5917,-1.598,-1.6011,-1.6051,-1.6057,-1.6074,-1.6063,-1.6055,-1.6057,-1.6055,-1.6058,-1.6076,-1.6076,-1.6076,-1.6076,0,-1.558,-1.5593,-1.5627,-1.5667,-1.5696,-1.5728,-1.5761,-1.5778,-1.5811,-1.5838,-1.5879,-1.5906,-1.5959,-1.6,-1.6043,-1.6066,-1.6077,-1.608,-1.6087,-1.608,-1.6069,-1.6075,-1.6027,-1.6078,-1.6078,-1.6078,-1.6078,-1.6078,-1.56,-1.5625,-1.5662,-1.57,-1.5728,-1.5758,-1.5785,-1.5811,-1.5846,-1.589,-1.5905,-1.5947,-1.5985,-1.6043,-1.6068,-1.6102,-1.6101,-1.611,-1.6113,-1.6115,-1.6115,-1.6064,-1.611,-1.611,-1.611,-1.611,-1.611,0,-1.5635,-1.566,-1.5694,-1.574,-1.577,-1.5778,-1.5814,-1.5839,-1.5876,-1.591,-1.5944,-1.5991,-1.6032,-1.6066,-1.6107,-1.6128,-1.6134,-1.6138,-1.6137,-1.6142,-1.6113,-1.6103,-1.6133,-1.6133,-1.6133,-1.6133,-1.6133,-1.6133,-1.5656,-1.5698,-1.5715,-1.5772,-1.5797,-1.5838,-1.5859,-1.5887,-1.5914,-1.5967,-1.6,-1.6022,-1.6056,-1.6101,-1.6138,-1.6147,-1.6162,-1.6164,-1.6175,-1.6147,-1.6144,-1.6141,-1.6132,-1.6167,-1.6167,-1.6201,-1.6201,-1.6201]}]]